DLH251 EDDH-EDLW

Flight info

Callsign DLH251
Flight time 0h 44m
Altitude 22000
Route HABFU1G HABFU Y348 MAWEQ Z718 OSNAD M170 HMM N853 DOMEG DOMEG2A
Aircraft A320/M-SDE3FGHIRWY/LB1

Departure

Time 2026-05-06 15:51
Airport Hamburg Helmut Schmidt Airport (EDDH)

Arrival

Time 2026-05-06 16:35
Airport Dortmund Airport (EDLW)
Time Latitude Longitude Altitude Speed Heading
2026-05-06 15:08 53.63097 10.00010 46 ft 0 kts 140°
2026-05-06 15:42 53.63109 9.99993 44 ft 4 kts 140°
2026-05-06 15:42 53.63125 9.99970 46 ft 4 kts 158°
2026-05-06 15:42 53.63147 9.99971 47 ft 4 kts 220°
2026-05-06 15:43 53.63163 10.00002 45 ft 3 kts 230°
2026-05-06 15:43 53.63166 10.00006 46 ft 0 kts 230°
2026-05-06 15:45 53.63162 9.99999 45 ft 4 kts 230°
2026-05-06 15:46 53.63127 9.99931 47 ft 8 kts 221°
2026-05-06 15:46 53.63082 9.99924 45 ft 5 kts 163°
2026-05-06 15:46 53.63053 9.99936 48 ft 6 kts 167°
2026-05-06 15:46 53.62995 9.99963 48 ft 8 kts 158°
2026-05-06 15:47 53.62945 9.99995 47 ft 7 kts 176°
2026-05-06 15:47 53.62910 9.99957 47 ft 6 kts 237°
2026-05-06 15:47 53.62898 9.99921 48 ft 0 kts 242°
2026-05-06 15:49 53.62896 9.99915 48 ft 2 kts 242°
2026-05-06 15:49 53.62864 9.99788 43 ft 15 kts 268°
2026-05-06 15:49 53.62901 9.99715 45 ft 1 kts 332°
2026-05-06 15:50 53.62922 9.99698 45 ft 19 kts 333°
2026-05-06 15:50 53.63291 9.99382 47 ft 95 kts 333°
2026-05-06 15:50 53.64059 9.98720 49 ft 150 kts 335°
2026-05-06 15:51 53.65059 9.97935 580 ft 157 kts 336°
2026-05-06 15:51 53.66038 9.97061 982 ft 176 kts 336°
2026-05-06 15:51 53.67160 9.96049 1320 ft 192 kts 338°
2026-05-06 15:51 53.68397 9.95003 1637 ft 208 kts 339°
2026-05-06 15:52 53.69730 9.93887 2395 ft 215 kts 338°
2026-05-06 15:52 53.71002 9.92572 3406 ft 217 kts 319°
2026-05-06 15:52 53.71727 9.90246 4134 ft 242 kts 282°
2026-05-06 15:52 53.71579 9.87231 4491 ft 275 kts 256°
2026-05-06 15:53 53.70918 9.84129 5280 ft 288 kts 248°
2026-05-06 15:53 53.70132 9.80992 6312 ft 288 kts 248°
2026-05-06 15:53 53.69368 9.77879 7395 ft 287 kts 248°
2026-05-06 15:53 53.68621 9.74723 8309 ft 292 kts 250°
2026-05-06 15:54 53.67930 9.71534 9269 ft 295 kts 250°
2026-05-06 15:54 53.67257 9.68240 9717 ft 297 kts 251°
2026-05-06 15:54 53.66607 9.64933 9858 ft 299 kts 252°
2026-05-06 15:54 53.65833 9.61466 9889 ft 333 kts 243°
2026-05-06 15:55 53.64495 9.58151 9891 ft 348 kts 226°
2026-05-06 15:55 53.62633 9.55543 10014 ft 352 kts 209°
2026-05-06 15:55 53.60476 9.53587 10877 ft 352 kts 207°
2026-05-06 15:55 53.58346 9.51528 11752 ft 354 kts 208°
2026-05-06 15:56 53.56237 9.49378 12659 ft 355 kts 210°
2026-05-06 15:56 53.54133 9.47188 13600 ft 357 kts 211°
2026-05-06 15:56 53.52014 9.44977 14336 ft 359 kts 211°
2026-05-06 15:56 53.49905 9.42793 15022 ft 362 kts 210°
2026-05-06 15:57 53.47751 9.40584 15727 ft 364 kts 211°
2026-05-06 15:57 53.45582 9.38381 16439 ft 366 kts 211°
2026-05-06 15:57 53.43389 9.36168 17096 ft 369 kts 211°
2026-05-06 15:57 53.41175 9.33941 17746 ft 372 kts 211°
2026-05-06 15:58 53.38946 9.31703 18357 ft 375 kts 211°
2026-05-06 15:58 53.36697 9.29441 18899 ft 378 kts 211°
2026-05-06 15:58 53.34428 9.27161 19408 ft 383 kts 211°
2026-05-06 15:58 53.32123 9.24850 19843 ft 389 kts 210°
2026-05-06 15:59 53.29828 9.22553 20383 ft 391 kts 210°
2026-05-06 15:59 53.27486 9.20211 20931 ft 394 kts 210°
2026-05-06 15:59 53.25127 9.17856 21426 ft 397 kts 211°
2026-05-06 15:59 53.22743 9.15474 21810 ft 400 kts 211°
2026-05-06 16:00 53.20343 9.13077 21881 ft 408 kts 210°
2026-05-06 16:00 53.17877 9.10618 21893 ft 416 kts 210°
2026-05-06 16:00 53.15386 9.08139 21895 ft 418 kts 210°
2026-05-06 16:00 53.12888 9.05655 21895 ft 418 kts 210°
2026-05-06 16:01 53.10393 9.03181 21897 ft 417 kts 210°
2026-05-06 16:01 53.07927 9.00741 21896 ft 418 kts 210°
2026-05-06 16:01 53.05419 8.98264 21880 ft 419 kts 210°
2026-05-06 16:01 53.02914 8.95793 21900 ft 418 kts 210°
2026-05-06 16:02 53.00412 8.93329 21900 ft 418 kts 210°
2026-05-06 16:02 52.97909 8.90867 21891 ft 419 kts 210°
2026-05-06 16:02 52.95397 8.88395 21903 ft 420 kts 210°
2026-05-06 16:02 52.92885 8.85926 21909 ft 420 kts 210°
2026-05-06 16:03 52.90370 8.83460 21906 ft 420 kts 210°
2026-05-06 16:03 52.87861 8.81000 21903 ft 419 kts 210°
2026-05-06 16:03 52.85384 8.78575 21902 ft 419 kts 210°
2026-05-06 16:03 52.82877 8.76128 21897 ft 418 kts 210°
2026-05-06 16:04 52.80367 8.73688 21872 ft 418 kts 210°
2026-05-06 16:04 52.77858 8.71254 21867 ft 418 kts 210°
2026-05-06 16:04 52.75354 8.68821 21884 ft 417 kts 210°
2026-05-06 16:04 52.72853 8.66384 21865 ft 417 kts 210°
2026-05-06 16:05 52.70352 8.63950 21864 ft 418 kts 210°
2026-05-06 16:05 52.67851 8.61524 21862 ft 417 kts 211°
2026-05-06 16:05 52.65380 8.59130 21879 ft 417 kts 211°
2026-05-06 16:05 52.62878 8.56713 21859 ft 417 kts 211°
2026-05-06 16:06 52.60376 8.54302 21874 ft 417 kts 211°
2026-05-06 16:06 52.57871 8.51890 21878 ft 417 kts 211°
2026-05-06 16:06 52.55352 8.49466 21869 ft 423 kts 211°
2026-05-06 16:06 52.52808 8.47016 21857 ft 425 kts 212°
2026-05-06 16:07 52.50255 8.44561 21860 ft 425 kts 212°
2026-05-06 16:07 52.47699 8.42114 21871 ft 426 kts 211°
2026-05-06 16:07 52.45138 8.39664 21864 ft 425 kts 212°
2026-05-06 16:07 52.42620 8.37255 21863 ft 424 kts 212°
2026-05-06 16:08 52.40073 8.34821 21866 ft 424 kts 212°
2026-05-06 16:08 52.37526 8.32390 21865 ft 424 kts 211°
2026-05-06 16:08 52.34973 8.29963 21864 ft 424 kts 211°
2026-05-06 16:08 52.32421 8.27543 21865 ft 424 kts 212°
2026-05-06 16:09 52.29871 8.25130 21861 ft 423 kts 211°
2026-05-06 16:09 52.27346 8.22741 21852 ft 412 kts 212°
2026-05-06 16:09 52.24882 8.20409 21163 ft 410 kts 212°
2026-05-06 16:09 52.22384 8.18043 20044 ft 419 kts 212°
2026-05-06 16:10 52.19919 8.15708 19586 ft 411 kts 212°
2026-05-06 16:10 52.17469 8.13393 19054 ft 404 kts 212°
2026-05-06 16:10 52.15052 8.11118 18539 ft 399 kts 211°
2026-05-06 16:10 52.12666 8.08877 18021 ft 394 kts 211°
2026-05-06 16:11 52.10312 8.06670 17493 ft 388 kts 211°
2026-05-06 16:11 52.07993 8.04494 16999 ft 381 kts 212°
2026-05-06 16:11 52.05713 8.02351 16488 ft 376 kts 211°
2026-05-06 16:11 52.03503 8.00119 15981 ft 371 kts 218°
2026-05-06 16:12 52.01570 7.97398 15449 ft 366 kts 227°
2026-05-06 16:12 51.99809 7.94428 14929 ft 363 kts 226°
2026-05-06 16:12 51.98069 7.91499 14404 ft 360 kts 226°
2026-05-06 16:12 51.96356 7.88629 13878 ft 357 kts 226°
2026-05-06 16:13 51.94636 7.85756 13305 ft 355 kts 226°
2026-05-06 16:13 51.92923 7.82894 12754 ft 351 kts 226°
2026-05-06 16:13 51.91226 7.80068 12202 ft 349 kts 227°
2026-05-06 16:13 51.89535 7.77255 11654 ft 348 kts 227°
2026-05-06 16:14 51.87853 7.74452 11098 ft 347 kts 227°
2026-05-06 16:14 51.86121 7.71742 10648 ft 344 kts 220°
2026-05-06 16:14 51.84173 7.69614 10519 ft 332 kts 209°
2026-05-06 16:14 51.82154 7.67943 10395 ft 320 kts 208°
2026-05-06 16:15 51.80232 7.66361 10269 ft 310 kts 208°
2026-05-06 16:15 51.78332 7.64793 10036 ft 303 kts 208°
2026-05-06 16:15 51.76481 7.63267 9893 ft 297 kts 208°
2026-05-06 16:15 51.74647 7.61757 9856 ft 296 kts 207°
2026-05-06 16:16 51.72807 7.60270 9863 ft 296 kts 204°
2026-05-06 16:16 51.70837 7.59334 9861 ft 296 kts 189°
2026-05-06 16:16 51.69476 7.59161 9763 ft 297 kts 179°
2026-05-06 16:16 51.67418 7.59516 9288 ft 299 kts 171°
2026-05-06 16:17 51.65370 7.60021 8901 ft 297 kts 172°
2026-05-06 16:17 51.62592 7.60702 7845 ft 313 kts 172°
2026-05-06 16:17 51.60395 7.61232 7059 ft 325 kts 173°
2026-05-06 16:17 51.58200 7.61760 6905 ft 312 kts 173°
2026-05-06 16:18 51.56101 7.62277 6778 ft 299 kts 173°
2026-05-06 16:18 51.54755 7.62608 6696 ft 291 kts 173°
2026-05-06 16:18 51.52797 7.63098 6516 ft 278 kts 172°
2026-05-06 16:18 51.50894 7.63536 6063 ft 275 kts 177°
2026-05-06 16:19 51.49041 7.63089 5664 ft 270 kts 205°
2026-05-06 16:19 51.47478 7.61462 5199 ft 269 kts 220°
2026-05-06 16:19 51.46189 7.59320 4736 ft 267 kts 236°
2026-05-06 16:19 51.44659 7.56219 4111 ft 268 kts 231°
2026-05-06 16:20 51.43835 7.54692 3812 ft 268 kts 231°
2026-05-06 16:20 51.42613 7.52437 3378 ft 267 kts 231°
2026-05-06 16:20 51.41392 7.50205 3037 ft 266 kts 227°
2026-05-06 16:20 51.40018 7.48268 2989 ft 267 kts 225°
2026-05-06 16:21 51.39030 7.45800 2991 ft 264 kts 255°
2026-05-06 16:21 51.38910 7.42926 2995 ft 259 kts 284°
2026-05-06 16:21 51.39671 7.40391 2995 ft 253 kts 314°
2026-05-06 16:21 51.41109 7.38882 2991 ft 248 kts 345°
2026-05-06 16:22 51.42759 7.38793 2986 ft 228 kts 15°
2026-05-06 16:22 51.44082 7.39884 2989 ft 207 kts 41°
2026-05-06 16:22 51.44947 7.41719 2998 ft 206 kts 58°
2026-05-06 16:22 51.45641 7.43690 2853 ft 201 kts 58°
2026-05-06 16:23 51.46318 7.45610 2607 ft 201 kts 58°
2026-05-06 16:23 51.47008 7.47559 2347 ft 201 kts 58°
2026-05-06 16:23 51.47702 7.49520 2073 ft 202 kts 58°
2026-05-06 16:23 51.48391 7.51468 1813 ft 195 kts 59°
2026-05-06 16:24 51.49033 7.53289 1527 ft 180 kts 58°
2026-05-06 16:24 51.49626 7.54969 1301 ft 166 kts 58°
2026-05-06 16:24 51.50177 7.56530 1060 ft 153 kts 59°
2026-05-06 16:24 51.50678 7.57948 840 ft 141 kts 59°
2026-05-06 16:25 51.51156 7.59279 618 ft 136 kts 58°
2026-05-06 16:25 51.51599 7.60576 447 ft 132 kts 60°
2026-05-06 16:25 51.52092 7.61963 520 ft 167 kts 58°
2026-05-06 16:25 51.52774 7.63767 798 ft 208 kts 53°
2026-05-06 16:26 51.53728 7.65828 1118 ft 243 kts 50°
2026-05-06 16:26 51.54783 7.67884 1435 ft 236 kts 49°
2026-05-06 16:26 51.55815 7.69936 2341 ft 237 kts 50°
2026-05-06 16:26 51.56851 7.71986 2801 ft 236 kts 47°
2026-05-06 16:27 51.58151 7.73548 2969 ft 235 kts 22°
2026-05-06 16:27 51.59739 7.73998 3002 ft 234 kts 355°
2026-05-06 16:27 51.61278 7.73217 3001 ft 235 kts 329°
2026-05-06 16:27 51.62417 7.71382 3004 ft 239 kts 302°
2026-05-06 16:28 51.62905 7.68822 3005 ft 244 kts 274°
2026-05-06 16:28 51.62576 7.66139 3005 ft 249 kts 245°
2026-05-06 16:28 51.61470 7.64009 3007 ft 252 kts 215°
2026-05-06 16:28 51.59844 7.63011 3007 ft 253 kts 184°
2026-05-06 16:29 51.58078 7.62981 3007 ft 254 kts 178°
2026-05-06 16:29 51.56310 7.63019 3005 ft 254 kts 178°
2026-05-06 16:29 51.54542 7.63058 3006 ft 254 kts 178°
2026-05-06 16:29 51.52773 7.63095 3006 ft 254 kts 178°
2026-05-06 16:30 51.51032 7.63131 3003 ft 254 kts 179°
2026-05-06 16:30 51.49841 7.63065 3003 ft 254 kts 189°
2026-05-06 16:30 51.47778 7.61418 3008 ft 253 kts 219°
2026-05-06 16:30 51.46418 7.59636 3008 ft 253 kts 221°
2026-05-06 16:31 51.45074 7.57824 3009 ft 253 kts 221°
2026-05-06 16:31 51.43730 7.55998 3007 ft 253 kts 221°
2026-05-06 16:31 51.42401 7.54156 3005 ft 253 kts 227°
2026-05-06 16:31 51.41521 7.51788 3004 ft 248 kts 258°
2026-05-06 16:32 51.41518 7.49095 2993 ft 241 kts 289°
2026-05-06 16:32 51.42353 7.46887 2998 ft 235 kts 320°
2026-05-06 16:32 51.43743 7.45633 2757 ft 229 kts 347°
2026-05-06 16:32 51.45308 7.45662 2501 ft 226 kts 17°
2026-05-06 16:33 51.46637 7.46899 2489 ft 216 kts 44°
2026-05-06 16:33 51.47477 7.48823 2173 ft 207 kts 59°
2026-05-06 16:33 51.48167 7.50812 1920 ft 200 kts 59°
2026-05-06 16:34 51.49421 7.54387 1372 ft 168 kts 58°
2026-05-06 16:34 51.49970 7.55941 1154 ft 151 kts 59°
2026-05-06 16:34 51.50461 7.57333 934 ft 140 kts 59°
2026-05-06 16:34 51.50931 7.58664 738 ft 136 kts 58°
2026-05-06 16:35 51.51392 7.59972 570 ft 133 kts 57°
2026-05-06 16:35 51.51849 7.61256 415 ft 129 kts 58°
2026-05-06 16:35 51.52214 7.62300 414 ft 66 kts 60°
2026-05-06 16:35 51.52312 7.62567 408 ft 22 kts 66°
2026-05-06 16:36 51.52272 7.62751 412 ft 17 kts 145°
2026-05-06 16:36 51.52179 7.62749 410 ft 12 kts 216°
2026-05-06 16:36 51.52139 7.62684 411 ft 5 kts 243°
2026-05-06 16:36 51.52119 7.62604 412 ft 14 kts 248°
2026-05-06 16:37 51.52088 7.62493 413 ft 7 kts 242°
2026-05-06 16:37 51.52050 7.62383 411 ft 24 kts 241°
2026-05-06 16:37 51.51964 7.62142 412 ft 24 kts 241°
2026-05-06 16:37 51.51936 7.62061 410 ft 0 kts 240°
2026-05-06 16:38 51.51914 7.61998 413 ft 20 kts 240°
2026-05-06 16:38 51.51842 7.61797 414 ft 20 kts 240°
2026-05-06 16:38 51.51780 7.61618 422 ft 18 kts 240°
2026-05-06 16:39 51.51717 7.61438 424 ft 14 kts 241°
2026-05-06 16:39 51.51682 7.61337 424 ft 6 kts 240°
2026-05-06 16:39 51.51675 7.61317 427 ft 0 kts 240°